Regional Weather Roundup
Issued by NWS

Home | Current Version | Previous Version | Text Only | Print | Product List | Glossary On
Versions: 1 2 3 4 5 6 7 8 9 10 11 12 13 14 15 16 17 18 19 20 21 22 23 24 25 26 27 28 29 30 31 32 33 34 35 36 37 38 39 40 41 42 43 44 45 46 47 48 49 50
000
ASUS44 KMEG 271210
RWRTN
TENNESSEE HOURLY STATE WEATHER ROUNDUP
NATIONAL WEATHER SERVICE MEMPHIS TN
600 AM CST THU NOV 27 2014

TNZ002-004-019-021-049-052-054-088>092-271300-
WEST TENNESSEE

CITY           SKY/WX    TMP DP  RH WIND       PRES   REMARKS
MEMPHIS INTL   CLOUDY    39  28  65 N13G20    30.40R WCI  32
NWS MEMPHIS      N/A     38 N/A N/A MISG        N/A
JACKSON        CLOUDY    38  30  73 NW12G20   30.34R WCI  30
DYERSBURG      CLOUDY    37  21  52 NW14G21   30.38R WCI  29
UNION CITY     CLOUDY    34  30  86 NW13      30.34R WCI  25
PARIS          CLOUDY    34  30  86 NW10      30.32R WCI  26
HUNTINGDON     CLOUDY    35  30  82 NW8       30.33R WCI  28
LEXINGTON      CLOUDY    36  30  80 NW9       30.30R WCI  29
SAVANNAH       CLOUDY    37  30  75 N12       30.32R WCI  30
$$

TNZ008-025-027-028-033-062-065-066-271300-
NORTH MIDDLE TENNESSEE

CITY           SKY/WX    TMP DP  RH WIND       PRES   REMARKS
NASHVILLE      CLOUDY    37  32  82 NW13G22   30.27R WCI  29
CLARKSVILLE    CLOUDY    35  33  92 NW9       30.30R FOG     WCI  28
COOKEVILLE     CLOUDY    34  32  93 NW5       30.19R WCI  30
CROSSVILLE     LGT SNOW  33  29  85 W14       30.13R FOG     WCI  23
$$

TNZ061-075-076-078-094-096-097-271300-
SOUTH MIDDLE TENNESSEE

CITY           SKY/WX    TMP DP  RH WIND       PRES   REMARKS
FAYETTEVILLE   CLOUDY    37  30  75 MISG      30.23R
TULLAHOMA      CLOUDY    36  32  87 NW10      30.22R WCI  28
WINCHESTER     CLOUDY    37  34  87 NW12      30.22R WCI  30
MCMINNVILLE    CLOUDY    36  32  87 NW13      30.22R WCI  27
COLUMBIA       CLOUDY    36  36 100 VRB6      30.25R WCI  31
SHELBYVILLE    CLOUDY    37  34  87 N14       30.25R WCI  29
$$

TNZ017-018-042-046-047-271300-
NORTHEAST TENNESSEE

CITY           SKY/WX    TMP DP  RH WIND       PRES   REMARKS
TRI CITIES     FLURRIES  34  33  96 SW5       30.04R WCI  30
ELIZABETHTON   CLOUDY    32  30  93 SW3       30.03R
$$

TNZ012-013-036-069-073-074-271300-
CENTRAL EAST TENNESSEE

CITY           SKY/WX    TMP DP  RH WIND       PRES   REMARKS
KNOXVILLE      CLOUDY    38  32  79 W8        30.13R WCI  32
OAK RIDGE      CLOUDY    39  32  76 W5        30.14R
GATLINBURG     CLOUDY    37  30  75 W8        30.10R WCI  31
MORRISTOWN     PTSUNNY   37  36  93 W12       30.08R WCI  30
$$

TNZ083-085-099-271300-
SOUTHEAST TENNESSEE

CITY           SKY/WX    TMP DP  RH WIND       PRES   REMARKS
CHATTANOOGA    LGT RAIN  42  33  70 W16G24    30.18R
$$

SKY/WX REPORTED AS FAIR MEANS FEW OR NO CLOUDS BELOW
12 THOUSAND FEET.




USA.gov is the U.S. government's official web portal to all federal, state and local government web resources and services.